Starlink 31097

operational
NORAD ID: 58718 Int'l Des: 2024-002 Owner: SPXS Country: US Constellation: starlink
LEOCIRCULAR

About Starlink 31097

Description loading...

Live Position

Loading 3D Globe...

Upcoming Passes

Altitude History

Altitude vs Time

uPlot chart will show altitude changes over time

Two-Line Element Set

1 58718U 24002P 25352.10038288 .00001300 00000-0 56037-4 0 9993
2 58718 53.1602 248.9100 0001413 87.7968 272.3195 15.30179866109528
Epoch: Dec 18, 2025 • Age: 11 hours

Current Status

Altitude 486.8 km
Velocity 7.62 km/s
Sub-Earth Point -34.23°S, 68.87°W
Launch Date Jan 3, 2024
Age 1.9 years
Type internet

Technical Details

Classification Payload
Mass 730.00 kg
Dry Mass 700.00 kg
Total Mass 730.00 kg
Length 0.30 m
Diameter 4.10 m
Span 29.00 m
Shape Box + pan
Manufacturer SPXS
Bus Type Starlink V2M
Phase Status In Orbit
Owner/State SPXS/US

Large Constellations

Loading constellations...